Location: Baili�vre
(50.0696°N, 4.2409°E)
Time: 05:29:13
(UTC+00:00)

Cosmos 1980 Rocket - Pass Details

Date: 08 August 2020
Orbit: 829 x 850 km, 71.0° (Epoch: 19 September)

Event Time Altitude Azimuth Distance (km) Brightness Sun altitude
Rises 22:19:09 0° 321° (NW) 3,420 6.7 -21.3°
Reaches altitude 10° 22:22:12 10° 305° (NW) 2,476 5.4 -21.4°
Maximum altitude 22:26:13 20° 260° (W) 1,851 4.1 -21.7°
Enters shadow 22:28:57 14° 225° (SW) 2,155 4.1 -21.8°
